Regional Weather Roundup
Issued by NWS

Home | Current Version | Previous Version | Text Only | Print | Product List | Glossary On
Versions: 1 2 3 4 5 6 7 8 9 10 11 12 13 14 15 16 17 18 19 20 21 22 23 24 25 26 27 28 29 30 31 32 33 34 35 36 37 38 39 40 41 42 43 44 45 46 47 48 49 50
000
ASCA44 KEWX 311920
RWRMX

LATIN AMERICA AND CARIBBEAN REGIONAL WEATHER ROUNDUP
NATIONAL WEATHER SERVICE AUSTIN/SAN ANTONIO TX
100 PM CST SAT JAN 31 2015

NOTE: "FAIR" INDICATED FEW OR NO CLOUDS BELOW 12,000 FEET WITH NO
SIGNIFICANT WEATHER AND/OR OBSTRUCTIONS TO VISIBILITY.

BAJA CALIFORNIA

CITY           SKY/WX    TMP DP  RH WIND       PRES   REMARKS
LORETO         MOSUNNY   72  54  53 W12       29.88F
LA PAZ         PTSUNNY   66  61  82 S14       29.96
MEXICALI       PTSUNNY   64  52  63 NW3       29.90
S.J. DEL CABO  CLOUDY    66  63  88 CALM      29.97F
TIJUANA        PTSUNNY   63  52  67 NW5       29.94F

NORTHWESTERN MEXICO

CITY           SKY/WX    TMP DP  RH WIND       PRES   REMARKS
CULIACAN       PTSUNNY   73  66  78 E6        29.98
DURANGO        CLOUDY    55  46  71 S12       30.13F
GUAYMAS        MOSUNNY   68  57  68 SW12      29.85
HERMOSILLO     PTSUNNY   70  57  64 S5        29.91
CD. JUAREZ     PTSUNNY   52  48  87 CALM      29.89
LOS MOCHIS     MOSUNNY   73  59  60 SW18      29.92F
OBREGON        PTSUNNY   66  59  77 W7        29.87

NORTHEASTERN MEXICO

CITY           SKY/WX    TMP DP  RH WIND       PRES   REMARKS
CHIHUAHUA      PTSUNNY   61  36  39 SW10      29.96
MATAMOROS      PTSUNNY   73  64  73 SE14      30.08
MONTERREY      CLOUDY    63  59  88 CALM      29.97F
NUEVO LAREDO   CLOUDY    72  57  60 SE14      29.99
PIEDRAS NEGRAS LGT RAIN  54  54 100 CALM      30.03F VSB 1/2
REYNOSA        PTSUNNY   72  57  60 SE17      29.99
SALTILLO       PTSUNNY   63  54  72 N10       30.08F
TORREON        PTSUNNY   57  52  82 SE8       30.03F
CD. VICTORIA   PTSUNNY   68  55  64 S12G23    30.00

WESTERN MEXICO

CITY           SKY/WX    TMP DP  RH WIND       PRES   REMARKS
AGUASCALIENTES MOSUNNY   66  36  32 S17G29    30.17
COLIMA         PTSUNNY   75  61  60 SW12      30.06F
DEL BAJIO      PTSUNNY   68  45  42 CALM      30.23F
GUADALAJARA    PTSUNNY   70  43  37 NW8       30.13
MANZANILLO     PTSUNNY   88  70  55 SW12      29.90F HX  92
MAZATLAN       PTSUNNY   73  61  64 N8        29.93F
P. VALLARTA    PTSUNNY   82  66  57 CALM      29.92F
URUAPAN        PTSUNNY   66  55  68 S14       30.18F
ZACATECAS      PTSUNNY   66  36  32 SW31G43   30.15F

CENTRAL MEXICO

CITY           SKY/WX    TMP DP  RH WIND       PRES   REMARKS
CUERNAVACA     SUNNY     72  36  26 CALM      30.13F
MEXICO CITY    SUNNY     73  25  16 SW9       30.19F
MORELIA        MOSUNNY   70  46  43 S21       30.18
POZA RICA      CLOUDY    70  64  83 CALM      30.08F
PUEBLA         MOSUNNY   64  37  36 S13       30.25F
QUERETARO      PTSUNNY   70  45  40 W17       30.21F
S. LUIS POTOSI MOSUNNY   63  45  51 CALM      30.15F
TAMPICO        PTSUNNY   72  61  68 S5        30.05F
TOLUCA         SUNNY     64  19  17 SW3       30.30F

SOUTHERN MEXICO

CITY           SKY/WX    TMP DP  RH WIND       PRES   REMARKS
ACAPULCO       SUNNY     84  72  65 SW9       29.92F
B. DE HUATULCO MOSUNNY   86  73  66 SW13      29.94  HX  93
OAXACA         SUNNY     70  41  35 S6        30.20F
P. ESCONDIDO   SUNNY     82  70  65 SE14      30.06S
VERACRUZ       MOSUNNY   73  63  68 E12       30.04F
ZIHUATANEJO    SUNNY     86  73  66 SW7       29.94F HX  93

YUCATAN PENINSULA

CITY           SKY/WX    TMP DP  RH WIND       PRES   REMARKS
CAMPECHE       MOSUNNY   79  63  57 E12       30.04F
CANCUN         MOSUNNY   77  55  47 E12       30.11F
CHETUMAL       MOSUNNY   81  70  69 CALM      30.04F
CD. DEL CARMEN MOSUNNY   79  64  61 SE7       30.04
COZUMEL        PTSUNNY   75  63  64 E14       30.10F
MERIDA         PTSUNNY   82  54  36 E12       30.07F
MINATITLAN     PTSUNNY   73  66  78 N8        30.00
TAPACHULA      MOSUNNY   86  72  62 SW12      29.90F HX  92
TUX. GUTIERREZ SUNNY     77  54  44 S5        30.02F
VILLAHERMOSA   MOSUNNY   79  63  57 E9        30.04F

CENTRAL AMERICA

CITY           SKY/WX    TMP DP  RH WIND       PRES   REMARKS
BELIZE CITY    MOSUNNY   81  66  61 NE7       30.04F
MANAGUA        PTCLDY    88  64  45 E23       29.89F

CARIBBEAN

CITY           SKY/WX    TMP DP  RH WIND       PRES   REMARKS
ARUBA          MOSUNNY   84  73  70 E18       29.86F HX  91
CURACAO        MOSUNNY   86  73  66 E14       29.89F HX  93
KINGSTON       MOSUNNY   84  68  58 W9        29.94F
NASSAU         MOSUNNY   72  54  53 NE13      30.19F
SAN JUAN       MOSUNNY   82  72  69 E12       29.98F
SANTO DOMINGO  MOSUNNY   84  70  61 S5        29.94F
ST. KITTS      MOSUNNY   82  72  69 NE13      29.97S
ST. MAARTEN    MOSUNNY   81  70  69 NE8       29.97S

$$




USA.gov is the U.S. government's official web portal to all federal, state and local government web resources and services.